Hourly Data Report for October 09, 2016

All times are specified in Local Standard Time (LST). Add 1 hour to adjust for Daylight Saving Time where and when it is observed.

MONCTON INTL A
NEW BRUNSWICK

46°06'44.000" N
64°40'43.000" W
70.70 m
8103201
71705
YQM

Download Data

Hourly Data (October 2016)
Hourly Data Report for October 9, 2016
Temp Definition
°C
Dew Point Temp Definition
°C
Rel Hum Definition
%
Wind Dir Definition
10's deg

Wind Spd Definition
km/h
Visibility Definition
km
Stn Press Definition
kPa
Hmdx Definition


Wind Chill Definition


Weather Definition


TIME
00:00 Legend Double Dagger 15.5 12.3 81 19 26 24.1 100.72     LegendNANA
01:00 Legend Double Dagger 15.3 12.5 83 19 25 24.1 100.68     LegendNANA
02:00 Legend Double Dagger 16.0 13.3 84 20 22 24.1 100.68     Cloudy
03:00 Legend Double Dagger 16.4 13.7 84 19 19 24.1 100.60     LegendNANA
04:00 Legend Double Dagger 16.5 14.0 85 19 16 24.1 100.64     LegendNANA
05:00 Legend Double Dagger 17.1 14.0 82 20 18 24.1 100.63     Cloudy
06:00 Legend Double Dagger 16.6 14.3 86 23 12 19.3 100.64     Rain
07:00 Legend Double Dagger 15.6 15.0 96 20 13 24.1 100.69     LegendNANA
08:00 Legend Double Dagger 15.8 15.0 95 22 11 24.1 100.70     Rain
09:00 Legend Double Dagger 16.2 14.2 88 25 16 24.1 100.74     LegendNANA
10:00 Legend Double Dagger 16.0 13.7 86 27 17 24.1 100.76     LegendNANA
11:00 Legend Double Dagger 14.9 10.0 72 29 22 24.1 100.79     Cloudy
12:00 Legend Double Dagger 14.3 10.0 75 29 16 24.1 100.83     LegendNANA
13:00 Legend Double Dagger 14.1 10.9 81 29 15 24.1 100.81     LegendNANA
14:00 Legend Double Dagger 12.8 9.5 80 31 13 19.3 100.80     Rain
15:00 Legend Double Dagger 12.0 10.4 90 30 13 19.3 100.80     Rain
16:00 Legend Double Dagger 9.9 9.0 94 34 11 12.9 100.94     Rain
17:00 Legend Double Dagger 9.6 8.5 93 34 12 24.1 100.89     Cloudy
18:00 Legend Double Dagger 9.4 8.0 91 33 10 24.1 100.98     LegendNANA
19:00 Legend Double Dagger 9.3 8.1 92 35 8 24.1 100.99     LegendNANA
20:00 Legend Double Dagger 9.2 8.3 94 34 11 12.9 101.00     Rain
21:00 Legend Double Dagger 9.1 8.5 96 35 18 12.9 100.84     Rain
22:00 Legend Double Dagger 9.1 8.5 96 36 10 12.9 100.91     Rain
23:00 Legend Double Dagger 9.1 8.7 97 2 17 12.9 100.77     Rain

Notes on Data Quality.

Legend

  • E = Estimated
  • M = Missing
  • NA = Not Available
  • ‡ = Partner data that is not subject to review by the National Climate Archives
Date modified: